Location: Newark
(52.9447°N, 5.7817°E)
Time: 03:53:15
(UTC+00:00)

Envisat - Visible Passes

Search period start: 25 September 2020 00:00
Search period end: 05 October 2020 00:00
Orbit: 764 x 766 km, 98.1° (Epoch: 24 September)

Date Brightness Start Highest point End Pass type
(mag) Time Alt. Az. Time Alt. Az. Time Alt. Az.
25 Sep 6.2 18:10:10 10° SW 18:13:33 18° W 18:16:58 10° NW visible
26 Sep 6.1 04:32:19 10° NE 04:35:53 19° E 04:39:26 10° SE visible
27 Sep 6.7 18:38:09 10° W 18:39:24 11° W 18:40:39 10° WNW visible
28 Sep 5.4 04:57:10 10° NNE 05:01:37 29° E 05:06:01 10° SSE visible
28 Sep 6.0 17:58:12 10° SW 18:02:02 21° W 18:05:55 10° NW visible
29 Sep 6.2 04:21:22 10° NE 04:24:21 16° E 04:27:21 10° ESE visible
30 Sep 6.4 18:25:22 10° WSW 18:27:51 13° W 18:30:20 10° NW visible
01 Oct 5.7 04:46:00 10° NE 04:50:08 24° E 04:54:15 10° SE visible
01 Oct 5.7 17:46:21 10° SSW 17:50:33 26° W 17:54:48 10° NW visible
02 Oct 6.4 04:10:38 10° ENE 04:12:49 13° E 04:15:00 10° ESE visible
03 Oct 6.2 18:13:08 10° SW 18:16:19 17° W 18:19:31 10° NW visible
04 Oct 6.0 04:34:54 10° NE 04:38:38 20° E 04:42:22 10° SE visible
04 Oct 5.3 17:34:36 10° SSW 17:39:05 31° W 17:43:36 10° NNW visible
